This demonstration page uses our WeatherBlox Daily Observations layout. Learn more.

Left ArrowRight Arrow

53.62937, 11.41316

Hourly Observations for November 14, 2020

Temp ( °F °C ) Dew Point ( °F °C ) Humidity (%) Winds ( mph kmh ) Pressure ( in mb ) Visibility ( mi km ) Precip ( " mm )
8:50 am 08:50 Mostly Cloudy with Mist and Fog 52 11 52 11 100 100 S 6 9 30.00 1016 2 4 N/A
9:20 am 09:20 Mostly Sunny 52 11 52 11 100 100 S 5 7 30.00 1016 4 7 N/A
9:50 am 09:50 Mostly Sunny 54 12 52 11 94 94 S 6 9 30.00 1016 5 8 N/A
10:20 am 10:20 Mostly Cloudy 54 12 52 11 94 94 S 6 9 30.00 1016 6 9 N/A
10:50 am 10:50 Mostly Cloudy 54 12 52 11 94 94 S 6 9 30.00 1016 6 9 N/A
11:20 am 11:20 Mostly Cloudy 55 13 52 11 88 88 S 5 7 30.00 1016 6 9 N/A
11:50 am 11:50 Mostly Cloudy 55 13 50 10 82 82 S 7 11 30.00 1016 6 9 N/A
12:20 pm 12:20 Partly Cloudy 55 13 50 10 82 82 S 8 13 30.00 1016 30 48 N/A
12:50 pm 12:50 Partly Cloudy 55 13 50 10 82 82 S 7 11 30.00 1016 30 48 N/A
1:20 pm 13:20 Partly Cloudy 55 13 50 10 82 82 S 6 9 30.00 1016 30 48 N/A
1:50 pm 13:50 Mostly Sunny 55 13 50 10 82 82 S 6 9 30.00 1016 30 48 N/A
2:20 pm 14:20 Mostly Sunny 55 13 50 10 82 82 S 5 7 30.00 1016 30 48 N/A
2:50 pm 14:50 Mostly Cloudy 55 13 50 10 82 82 SSE 5 7 29.97 1015 30 48 N/A
3:20 pm 15:20 Partly Cloudy 55 13 50 10 82 82 SE 3 6 29.97 1015 30 48 N/A
3:50 pm 15:50 Partly Cloudy 54 12 50 10 88 88 SE 5 7 29.97 1015 30 48 N/A
4:20 pm 16:20 Partly Cloudy 54 12 50 10 88 88 SE 3 6 29.97 1015 30 48 N/A
4:50 pm 16:50 Partly Cloudy 54 12 52 11 94 94 E 3 6 29.97 1015 30 48 N/A
5:20 pm 17:20 Mostly Cloudy 54 12 52 11 94 94 ESE 5 7 29.94 1014 30 48 N/A
5:50 pm 17:50 Mostly Cloudy 54 12 52 11 94 94 ESE 5 7 29.94 1014 30 48 N/A
6:20 pm 18:20 Mostly Cloudy 54 12 54 12 100 100 SE 3 6 29.94 1014 30 48 N/A
6:50 pm 18:50 Mostly Cloudy 54 12 52 11 94 94 SE 6 9 29.94 1014 30 48 N/A
7:20 pm 19:20 Mostly Clear 54 12 52 11 94 94 SE 5 7 29.94 1014 7 11 N/A
7:50 pm 19:50 Partly Cloudy 54 12 52 11 94 94 SSE 6 9 29.94 1014 30 48 N/A
8:20 pm 20:20 Mostly Clear 54 12 52 11 94 94 SE 5 7 29.94 1014 30 48 N/A
8:50 pm 20:50 Mostly Clear 54 12 52 11 94 94 SE 6 9 29.94 1014 7 11 N/A
9:20 pm 21:20 Mostly Clear 52 11 52 11 100 100 SSE 5 7 29.91 1013 7 11 N/A
9:50 pm 21:50 Mostly Clear 52 11 50 10 94 94 SE 6 9 29.91 1013 7 11 N/A
10:20 pm 22:20 Mostly Clear 54 12 50 10 88 88 SE 6 9 29.91 1013 7 11 N/A
10:50 pm 22:50 Mostly Clear 54 12 50 10 88 88 SE 6 9 29.91 1013 7 11 N/A

Powered by AerisWeather